Flag for Austria Weather past 2 weeks in Leonding, Upper Austria, Austria

Now
57 °F

Partly sunny.


Feels Like: 57 °F
Forecast: 46 / 59 °F
Wind: 2 mph from North

Location: Linz / Hoersching-Flughafen

Current Time: Sep 21, 2014 at 8:23:50 AM

Latest Report: Sep 21, 2014 at 7:50 AM


Visibility: N/A

Pressure: 29.98 "Hg

Humidity: 100%

Dew point: 57 °F

Location of LeondingLocation

Historic Weather in Leonding — Graph

°F

Leonding temperature yesterday

Maximum temperature yesterday: 70 °F (at 3:20 PM)
Minimum temperature yesterday: 57 °F (at 3:50 AM)
Average temperature yesterday: 62 °F

Past Weeks' High & Low Weather Summary

 TemperatureHumidityPressure
High79 °F (Sep 7, 4:20 PM)100% (Sep 6, 6:20 AM)30.09 "Hg (Sep 6, 6:20 AM)
Low52 °F (Sep 13, 1:50 AM)41% (Sep 17, 3:20 PM)29.89 "Hg (Sep 12, 4:20 AM)
Average62 °F81%30.00 "Hg
* Reported Sep 6 6:20 AM — Sep 21 6:50 AM, Leonding, Weather by CustomWeather, © 2014

Note: Actual official high and low records may vary slightly from our data, if they occured in-between our weather recording intervals... More about our weather records

Advertising

Leonding weather history for previous 24 hours

 ConditionsComfort  
Time TempWeatherWind HumidityBarometerVisibility
6:50 AM
Sep 21
59 °FFog.6 mph88%29.98 "HgN/A
6:20 AM57 °FPassing clouds.3 mph94%29.98 "HgN/A
5:50 AM59 °FPassing clouds.8 mph94%29.98 "HgN/A
5:20 AM59 °FPassing clouds.5 mph94%29.98 "HgN/A
4:50 AM61 °FPassing clouds.5 mph88%30.01 "HgN/A
4:20 AM59 °FPassing clouds.2 mph94%30.01 "HgN/A
3:50 AM59 °FPassing clouds.5 mph94%30.01 "HgN/A
3:20 AM59 °FPassing clouds.6 mph94%30.01 "HgN/A
2:50 AM61 °FPassing clouds.8 mph94%30.01 "HgN/A
2:20 AM59 °FPassing clouds.6 mph94%30.01 "HgN/A
1:50 AM61 °FPassing clouds.7 mph88%30.01 "HgN/A
1:20 AM61 °FCool.6 mph94%30.01 "HgN/A
12:50 AM63 °FMild.6 mph88%30.01 "HgN/A
12:20 AM63 °FMild.6 mph94%30.01 "HgN/A
11:50 PM
Sep 20
63 °FRain. Overcast.6 mph94%29.98 "HgN/A
11:20 PM63 °FPartly cloudy.2 mph88%29.98 "HgN/A
10:20 PM61 °FPartly cloudy.2 mph94%29.98 "HgN/A
9:50 PM63 °FPassing clouds.3 mph88%29.98 "HgN/A
9:20 PM63 °FPartly cloudy.3 mph94%29.98 "HgN/A
8:50 PM63 °FPartly cloudy.6 mph88%29.98 "HgN/A
8:20 PM64 °FPartly cloudy.6 mph88%29.98 "HgN/A
7:50 PM64 °FBroken clouds.5 mph88%29.98 "HgN/A
3:20 PM70 °FScattered clouds.5 mph73%29.98 "HgN/A
2:50 PM68 °FPartly sunny.5 mph78%29.98 "HgN/A
2:20 PM68 °FPartly sunny.5 mph78%30.01 "HgN/A
1:50 PM68 °FPartly sunny.3 mph78%30.01 "HgN/A
1:20 PM68 °FPartly sunny.2 mph78%30.01 "HgN/A
12:50 PM68 °FPartly sunny.2 mph78%30.01 "HgN/A
12:20 PM66 °FBroken clouds.2 mph83%30.01 "HgN/A
11:50 AM66 °FBroken clouds.2 mph83%30.01 "Hg5 mi
11:20 AM64 °FBroken clouds.2 mph88%30.01 "Hg4 mi
10:50 AM63 °FBroken clouds.2 mph94%30.01 "Hg4 mi
10:20 AM61 °FFog.2 mph94%30.01 "Hg3 mi
9:50 AM61 °FFog.3 mph94%30.04 "Hg1 mi
9:20 AM59 °FFog.3 mph100%30.01 "Hg1 mi
8:50 AM59 °FFog.3 mph100%30.01 "Hg0 mi
8:20 AM59 °FFog.2 mph100%30.01 "Hg0 mi
Weather by CustomWeather, © 2014

See weather overviewHow to use our weather pages